This is the latest recevied weather packets stored in our database for station/object WAKT. If no packets are shown the sender has not sent any weather packets the latest 10 day(s).
| Time | Temp. | Humidity | Pressure | Rain* | Wind** | Luminosity | Snow |
|---|---|---|---|---|---|---|---|
| 1787668811 | 23.89° C | 83% | 1016 hPa | 0 mm | - | - | - |
| 1787666833 | 23.89° C | 83% | 1016 hPa | 0 mm | - | - | - |
| 1787662676 | 25° C | 78% | 1015 hPa | 0 mm | - | - | - |
| 1787656091 | 27.22° C | 70% | 1014 hPa | 0 mm | - | - | - |
| 1787654051 | 28.89° C | 58% | 1014 hPa | 0 mm | - | - | - |
| 1787647192 | 32.78° C | 46% | 1012 hPa | 0 mm | - | - | - |
| 1787645160 | 32.78° C | 46% | 1012 hPa | 0 mm | - | - | - |
| 1787642995 | 32.78° C | 49% | 1012 hPa | 0 mm | - | - | - |
| 1787638135 | 32.22° C | 52% | 1012 hPa | 0 mm | - | - | - |
| 1787636070 | 30° C | 59% | 1013 hPa | 0 mm | - | - | - |
| 1787634066 | 30° C | 59% | 1013 hPa | 0 mm | - | - | - |
| 1787632102 | 31.11° C | 62% | 1014 hPa | 0 mm | - | - | - |
| 1787625202 | 27.22° C | 79% | 1016 hPa | 0 mm | - | - | - |
| 1787623218 | 27.22° C | 79% | 1016 hPa | 0 mm | - | - | - |
| 1787621239 | 25° C | 89% | 1017 hPa | 0 mm | - | - | - |
| 1787619204 | 22.78° C | 94% | 1017 hPa | 0 mm | - | - | - |
| 1787617232 | 22.78° C | 94% | 1017 hPa | 0 mm | - | - | - |
| 1787615262 | 21.11° C | 94% | 1016 hPa | 0 mm | - | - | - |
| 1787613288 | 21.11° C | 94% | 1016 hPa | 0 mm | - | - | - |
| 1787611318 | 21.11° C | 94% | 1016 hPa | 0 mm | - | - | - |
| 1787609345 | 21.11° C | 94% | 1016 hPa | 0 mm | - | - | - |
| 1787607371 | 21.11° C | 94% | 1015 hPa | 0 mm | - | - | - |
| 1787589549 | 23.89° C | 83% | 1015 hPa | 0 mm | - | - | - |
| 1787587570 | 23.89° C | 83% | 1015 hPa | 0 mm | - | - | - |
| 1787585572 | 23.89° C | 83% | 1015 hPa | 0 mm | - | - | - |
* Rain latest hour (hover to see other rain measurements)
** Current wind speed in m/s (hover to see current wind gust speed)